Welcome to the New NWS' Forecast!
Most changes are behind the scenes, but click here for differences you might notice.
Latest weather observations around

Bakersfield, Meadows Field Airport (KBFL)

Using English Units (Switch to International System of Units)
Date/ Time (PDT) Wind (mph) Vis. (mi) Weather Sky Cond. Temp (°F) Rel. Humidity Wind Chill (°F) Heat Index (°F) Pressure Precip. (in)
Air Dwpt 6 hour Altimeter (inHg) Sea level (inHg) 1 hr 3 hr 6 hr
Max Min
Sep 23 06:54 ESE 5 10 Clear CLR 57 40     53%     29.88 29.87      
Sep 23 05:54 ESE 5 10 Clear CLR 57 41     55%     29.87 29.86      
Sep 23 04:54 ESE 5 10 Partly Cloudy SCT070 58 40     51%     29.86 29.85      
Sep 23 03:54 SE 3 10 Partly Cloudy SCT070 58 40     51%     29.86 29.85      
Sep 23 02:54 SE 3 10 Partly Cloudy SCT070 59 40     49%     29.86 29.85      
Sep 23 01:54 ESE 3 10 Clear CLR 61 42     50%     29.86 29.84      
Sep 23 00:54 Calm 10 Mostly Cloudy BKN070 61 41     48%     29.85 29.84      
Sep 22 23:54 SE 6 10 Clear CLR 62 40     44%     29.84 29.83      
Sep 22 22:54 ENE 3 10 Clear CLR 61 39     44%     29.84 29.83      
Sep 22 21:54 NE 8 10 Clear CLR 62 38     41%     29.84 29.83      
Sep 22 20:54 NNE 3 10 Clear CLR 65 38     37%     29.83 29.82      
Sep 22 19:54 NNE 6 10 Clear CLR 68 39     35%     29.82 29.81      
Sep 22 18:54 N 7 10 Clear CLR 70 38     31%     29.82 29.8      
Sep 22 17:54 NNW 9 10 Clear CLR 73 37     27%   71 29.81 29.8      
Sep 22 16:54 NW 6 10 Clear CLR 74 35     24%   72 29.81 29.79      
Sep 22 15:54 WNW 9 10 Clear CLR 74 37     26%   72 29.82 29.81      
Sep 22 14:54 W 8 10 Clear CLR 73 38     28%   71 29.84 29.83      
Sep 22 13:54 W 7 10 Clear CLR 72 43     35%   71 29.87 29.85      
Sep 22 12:54 WNW 9 10 Clear CLR 70 44     39%     29.89 29.88      
Sep 22 11:54 NW 9 10 Clear CLR 68 43     40%     29.91 29.89      
Sep 22 10:54 NNW 5 10 Clear CLR 66 42     42%     29.93 29.91      
Sep 22 09:54 N 5 10 Clear CLR 64 45     50%     29.93 29.92      
Sep 22 08:54 SSE 3 10 Clear CLR 58 47     67%     29.93 29.92      
Sep 22 07:54 S 3 10 Clear CLR 55 45     69%     29.92 29.91      
Sep 22 06:54 Calm 10 Clear CLR 53 44     71%     29.91 29.9      
Sep 22 05:54 WNW 6 10 Clear CLR 54 44     69%     29.89 29.88      
Sep 22 04:54 Calm 10 Clear   56 43     62%     29.88 29.87      
Sep 22 03:54 N 6 10 Clear CLR 59 43     55%     29.88 29.86      
Sep 22 02:54 Calm 10 Clear CLR 58 43     57%     29.88 29.87      
Sep 22 01:54 N 5 10 Clear CLR 56 41     57%     29.88 29.87      
Sep 22 00:54 NW 3 10 Clear CLR 57 41     55%     29.88 29.87      
Sep 21 23:54 E 6 10 Clear CLR 61 41     48%     29.87 29.86      
Sep 21 22:54 Calm 10 Clear CLR 63 41     45%     29.87 29.85      
Sep 21 21:54 N 5 10 Clear CLR 62 41     46%     29.86 29.85      
Sep 21 20:54 N 6 10 Clear CLR 64 41     43%     29.86 29.85      
Sep 21 19:54 NNE 6 10 Clear CLR 68 41     37%     29.85 29.83      
Sep 21 18:54 NNW 8 10 Clear CLR 68 39     35%     29.84 29.83      
Sep 21 17:54 NNW 8 10 Clear CLR 72 39     30%   70 29.84 29.83      
Sep 21 16:54 WNW 9 10 Clear CLR 72 41     33%   70 29.84 29.82      
Sep 21 15:54 3 10 Clear CLR 71 43     36%   70 29.84 29.83      
Sep 21 14:54 5 10 Clear CLR 71 45     39%   70 29.86 29.85      
Sep 21 13:54 5 10 Cloudy BKN045 OVC055 69 46     44%     29.87 29.86      
Sep 21 12:54 W 9 10 Mostly Cloudy FEW044 BKN070 67 46     47%     29.9 29.88      
Sep 21 11:54 5 10 Mostly Cloudy BKN065 65 48     54%     29.91 29.89      
Sep 21 10:54 NW 5 10 Cloudy OVC045 61 53     75%     29.92 29.91 0   0
Sep 21 09:54 N 7 10 Cloudy OVC036 59 53     81%     29.91 29.9 0    
Sep 21 08:54 N 14 3 Light Rain and Fog/Mist FEW024 BKN033 OVC040 58 54     87%     29.89 29.88 0    
Sep 21 08:49 N 16 4 Light Rain and Fog/Mist SCT025 BKN031 OVC042 57 54     88%     29.89   0    
Sep 21 08:24 N 15 6 Light Rain and Fog/Mist SCT014 BKN026 OVC036 58 54     87%     29.88   0    
Sep 21 07:54 NNW 14 5 Light Rain BKN030 OVC036 60 54     80%     29.87 29.85 0 0  
Sep 21 06:54 N 11 10 Cloudy OVC036 62 52     70%     29.84 29.83 0    
Sep 21 05:54 NNW 15 10 Light Rain OVC040 63 54     72%     29.83 29.82 0    
Sep 21 04:54   10 Cloudy OVC033 65 54     68%     29.82 29.8      
Sep 21 04:44 NW 14 10 Cloudy BKN030 OVC037 65 55     70%     29.82        
Sep 21 04:37 NNW 10 10 Cloudy BKN028 OVC035 65 55     70%     29.82        
Sep 21 03:54 NW 8 10 Clear CLR 64 56     75%     29.81 29.79      
Sep 21 02:54 NNW 5 10 Clear CLR 63 53     70%     29.8 29.79      
Sep 21 01:54 NNW 5 10 Clear CLR 66 52     61%     29.81 29.79      
Sep 21 00:54 NNW 7 10 Clear CLR 67 52     59%     29.81 29.79      
Sep 20 23:54 N 6 10 Clear CLR 71 46     41%   70 29.81 29.79      
Sep 20 22:54 E 3 10 Clear CLR 70 46     42%     29.8 29.78      
Sep 20 21:54 NNE 5 10 Clear CLR 71 45     39%   70 29.8 29.78      
Sep 20 20:54 N 3 10 Clear CLR 75 45     34%   74 29.8 29.78      
Sep 20 19:54 NW 3 10 Clear CLR 75 46     36%   74 29.79 29.78      
Sep 20 18:54 NW 3 10 Clear CLR 79 45     30%   78 29.78 29.76      
Sep 20 17:54 NW 8 10 Clear CLR 81 45     28%   80 29.79 29.78      
Sep 20 16:54 NNW 8 10 Clear CLR 82 44     26%   80 29.8 29.79      
Sep 20 15:54 6 10 Clear CLR 81 45     28%   80 29.83 29.81      
Sep 20 14:54 NW 7 10 Clear CLR 80 44     28%   79 29.84 29.83      
Sep 20 13:54 WNW 8 10 Clear CLR 79 45     30%   78 29.87 29.85      
Sep 20 12:54 W 9 10 Clear CLR 77 46     33%   76 29.9 29.88      
Sep 20 11:54 6 10 Clear CLR 76 47     36%   75 29.92 29.9      
Sep 20 10:54 Calm 10 Clear CLR 73 47     39%   72 29.94 29.93      
Sep 20 09:54 WNW 3 10 Clear CLR 70 47     44%     29.96 29.95      
Sep 20 08:54 Calm 10 Clear CLR 66 45     47%     29.96 29.95      
Sep 20 07:54 ESE 7 10 Clear CLR 62 46     56%     29.96 29.94      
Jun 11 23:54 N 18 10 Mostly Cloudy BKN080 61 42     50%     29.98 29.97      
Jun 11 09:54 NNW 13 10 Mostly Clear FEW039 64 43     46%     29.93 29.92      
Jun 11 07:54 NNW 15 10 Clear CLR 61 44     54%     29.91 29.9      
Jun 10 21:54 N 6 10 Clear CLR 71 46     41%   70 29.84 29.82      
Jun 10 18:54 NW 10 10 Clear CLR 77 46     33%   76 29.82 29.8      
Jun 10 15:54 W 10 10 Clear CLR 77 47     35%   76 29.85 29.84      
Jun 10 08:54 NW 8 10 Cloudy OVC048 63 43     48%     29.96 29.94      
Jun 08 21:54 NW 14 10 Clear   76 48     37%   75 29.92 29.9      
Jun 08 14:01 W 10 9 Mostly Clear FEW001 87 37     17%   84 29.94        
Jun 08 11:54 W 7 10 Clear CLR 81 46     29%   80 29.97 29.95      
Jun 08 06:54 ENE 5 10 Clear CLR 69 46     44%     29.97 29.95      
Jun 07 08:54 3 10 Clear CLR 78 45     31%   77 29.87 29.85